TimeCST,TemperatureF,Dew PointF,Humidity,Sea Level PressureIn,VisibilityMPH,Wind Direction,Wind SpeedMPH,Gust SpeedMPH,PrecipitationIn,Events,Conditions,WindDirDegrees,DateUTC
12:13 AM,12.2,12.2,100,30.03,10.0,WNW,5.8,-,N/A,,Overcast,300,2012-12-29 06:13:00
12:33 AM,12.2,12.2,100,30.03,10.0,WNW,3.5,-,N/A,,Overcast,300,2012-12-29 06:33:00
12:53 AM,12.2,12.2,100,30.03,10.0,WNW,3.5,-,N/A,,Overcast,300,2012-12-29 06:53:00
1:13 AM,12.2,12.2,100,30.03,10.0,Calm,Calm,-,N/A,,Overcast,0,2012-12-29 07:13:00
1:33 AM,12.2,12.2,100,30.03,10.0,West,3.5,-,N/A,,Overcast,280,2012-12-29 07:33:00
1:53 AM,12.2,12.2,100,30.03,10.0,West,4.6,-,N/A,,Overcast,280,2012-12-29 07:53:00
2:13 AM,12.2,12.2,100,30.04,10.0,WNW,4.6,-,N/A,,Overcast,290,2012-12-29 08:13:00
2:33 AM,12.2,10.4,92,30.04,7.0,WNW,4.6,-,N/A,,Overcast,290,2012-12-29 08:33:00
2:53 AM,10.4,10.4,100,30.04,7.0,Calm,Calm,-,N/A,,Overcast,0,2012-12-29 08:53:00
3:13 AM,10.4,10.4,100,30.05,7.0,West,4.6,-,N/A,,Overcast,280,2012-12-29 09:13:00
3:33 AM,10.4,8.6,92,30.05,7.0,WNW,3.5,-,N/A,,Overcast,290,2012-12-29 09:33:00
3:53 AM,10.4,8.6,92,30.05,7.0,WNW,4.6,-,N/A,,Overcast,290,2012-12-29 09:53:00
4:14 AM,10.4,8.6,92,30.05,7.0,West,5.8,-,N/A,,Overcast,270,2012-12-29 10:14:00
4:33 AM,10.4,8.6,92,30.05,5.0,WNW,6.9,-,N/A,,Overcast,290,2012-12-29 10:33:00
4:53 AM,8.6,8.6,100,30.05,5.0,West,4.6,-,N/A,,Overcast,260,2012-12-29 10:53:00
5:14 AM,8.6,8.6,100,30.05,4.0,West,5.8,-,N/A,,Overcast,270,2012-12-29 11:14:00
5:33 AM,8.6,6.8,92,30.05,4.0,West,5.8,-,N/A,,Overcast,270,2012-12-29 11:33:00
5:53 AM,8.6,8.6,100,30.06,4.0,West,5.8,-,N/A,,Overcast,270,2012-12-29 11:53:00
6:13 AM,8.6,8.6,100,30.05,4.0,West,5.8,-,N/A,Snow,Light Snow,280,2012-12-29 12:13:00
6:33 AM,8.6,8.6,100,30.05,4.0,West,4.6,-,N/A,Snow,Light Snow,270,2012-12-29 12:33:00
7:13 AM,10.4,8.6,92,30.06,4.0,Calm,Calm,-,N/A,Snow,Light Snow,0,2012-12-29 13:13:00
7:33 AM,10.4,10.4,100,30.06,4.0,Calm,Calm,-,N/A,Snow,Light Snow,0,2012-12-29 13:33:00
7:53 AM,10.4,10.4,100,30.06,5.0,Calm,Calm,-,N/A,,Overcast,0,2012-12-29 13:53:00
8:13 AM,10.4,10.4,100,30.06,4.0,WSW,3.5,-,N/A,Snow,Light Snow,240,2012-12-29 14:13:00
8:33 AM,10.4,10.4,100,30.06,4.0,WSW,4.6,-,N/A,Snow,Light Snow,250,2012-12-29 14:33:00
8:53 AM,10.4,10.4,100,30.06,2.5,Calm,Calm,-,N/A,Snow,Light Snow,0,2012-12-29 14:53:00
9:13 AM,12.2,10.4,92,30.07,4.0,West,3.5,-,N/A,Snow,Light Snow,260,2012-12-29 15:13:00
9:33 AM,12.2,10.4,92,30.07,4.0,Calm,Calm,-,N/A,Snow,Light Snow,0,2012-12-29 15:33:00
9:53 AM,10.4,10.4,100,30.07,5.0,Calm,Calm,-,N/A,,Overcast,0,2012-12-29 15:53:00
10:13 AM,10.4,10.4,100,30.08,7.0,WSW,3.5,-,N/A,,Overcast,240,2012-12-29 16:13:00
10:33 AM,8.6,8.6,100,30.08,5.0,West,4.6,-,N/A,,Overcast,260,2012-12-29 16:33:00
10:53 AM,10.4,8.6,92,30.08,7.0,Calm,Calm,-,N/A,,Overcast,0,2012-12-29 16:53:00
11:13 AM,10.4,8.6,92,30.08,7.0,West,3.5,-,N/A,,Mostly Cloudy,270,2012-12-29 17:13:00
11:33 AM,10.4,8.6,92,30.08,7.0,West,4.6,-,N/A,,Scattered Clouds,270,2012-12-29 17:33:00
11:53 AM,10.4,8.6,92,30.07,7.0,WSW,3.5,-,N/A,,Clear,240,2012-12-29 17:53:00
12:13 PM,10.4,8.6,92,30.06,7.0,West,3.5,-,N/A,,Clear,280,2012-12-29 18:13:00
12:53 PM,10.4,10.4,100,30.05,10.0,WSW,4.6,-,N/A,,Scattered Clouds,250,2012-12-29 18:53:00
1:13 PM,10.4,10.4,100,30.05,10.0,West,5.8,-,N/A,,Overcast,260,2012-12-29 19:13:00
1:33 PM,10.4,10.4,100,30.05,10.0,West,5.8,-,N/A,,Overcast,260,2012-12-29 19:33:00
1:53 PM,10.4,8.6,92,30.05,10.0,West,4.6,-,N/A,,Overcast,260,2012-12-29 19:53:00
2:13 PM,10.4,8.6,92,30.05,10.0,Calm,Calm,-,N/A,,Overcast,0,2012-12-29 20:13:00
2:33 PM,10.4,8.6,92,30.05,10.0,West,4.6,-,N/A,,Overcast,270,2012-12-29 20:33:00
2:53 PM,12.2,10.4,92,30.06,10.0,West,5.8,-,N/A,,Mostly Cloudy,270,2012-12-29 20:53:00
3:13 PM,10.4,8.6,92,30.07,10.0,West,6.9,-,N/A,,Scattered Clouds,270,2012-12-29 21:13:00
3:33 PM,10.4,8.6,92,30.08,10.0,West,6.9,-,N/A,,Clear,270,2012-12-29 21:33:00
3:53 PM,10.4,6.8,85,30.07,10.0,West,6.9,-,N/A,,Clear,260,2012-12-29 21:53:00
4:13 PM,8.6,6.8,92,30.08,10.0,West,3.5,-,N/A,,Clear,260,2012-12-29 22:13:00
4:33 PM,8.6,6.8,92,30.08,10.0,Calm,Calm,-,N/A,,Clear,0,2012-12-29 22:33:00
5:13 PM,6.8,3.2,85,30.09,10.0,SW,3.5,-,N/A,,Clear,230,2012-12-29 23:13:00
5:33 PM,5.0,3.2,92,30.10,10.0,SW,3.5,-,N/A,,Clear,230,2012-12-29 23:33:00
5:53 PM,3.2,3.2,100,30.09,10.0,WSW,3.5,-,N/A,,Clear,240,2012-12-29 23:53:00
6:13 PM,3.2,1.4,92,30.10,10.0,SW,4.6,-,N/A,,Clear,230,2012-12-30 00:13:00
6:33 PM,3.2,1.4,92,30.11,10.0,WSW,4.6,-,N/A,,Clear,240,2012-12-30 00:33:00
6:53 PM,3.2,1.4,92,30.11,10.0,WSW,3.5,-,N/A,,Clear,250,2012-12-30 00:53:00
7:13 PM,3.2,1.4,92,30.11,10.0,West,3.5,-,N/A,,Clear,260,2012-12-30 01:13:00
7:33 PM,3.2,1.4,92,30.11,10.0,WSW,3.5,-,N/A,,Clear,250,2012-12-30 01:33:00
7:53 PM,3.2,1.4,92,30.11,10.0,WSW,3.5,-,N/A,,Clear,250,2012-12-30 01:53:00
8:13 PM,3.2,1.4,92,30.12,10.0,West,3.5,-,N/A,,Clear,270,2012-12-30 02:13:00
8:33 PM,3.2,1.4,92,30.11,10.0,WSW,3.5,-,N/A,,Clear,250,2012-12-30 02:33:00
8:53 PM,3.2,1.4,92,30.12,10.0,Calm,Calm,-,N/A,,Clear,0,2012-12-30 02:53:00
9:13 PM,1.4,-0.4,92,30.12,10.0,Calm,Calm,-,N/A,,Unknown,0,2012-12-30 03:13:00
9:33 PM,1.4,1.4,100,30.12,10.0,Calm,Calm,-,N/A,,Clear,0,2012-12-30 03:33:00
9:53 PM,1.4,1.4,100,30.14,10.0,WSW,3.5,-,N/A,,Clear,250,2012-12-30 03:53:00
10:13 PM,3.2,1.4,92,30.14,10.0,WSW,3.5,-,N/A,,Clear,250,2012-12-30 04:13:00
10:33 PM,1.4,1.4,100,30.14,10.0,SW,3.5,-,N/A,,Clear,230,2012-12-30 04:33:00
10:53 PM,1.4,-0.4,92,30.14,7.0,Calm,Calm,-,N/A,,Clear,0,2012-12-30 04:53:00
11:13 PM,1.4,-0.4,92,30.14,10.0,Calm,Calm,-,N/A,,Clear,0,2012-12-30 05:13:00
11:33 PM,-0.4,-2.2,92,30.13,7.0,Calm,Calm,-,N/A,,Unknown,0,2012-12-30 05:33:00
11:53 PM,-2.2,-5.8,85,30.13,10.0,Calm,Calm,-,N/A,,Unknown,0,2012-12-30 05:53:00